Location: Bidwell Hollow
(37.7387°N, 90.1707°W)
Time: 18:48:57
(UTC+00:00)

Oscar 19 - Visible Passes

Search period start: 03 December 2024 00:00
Search period end: 13 December 2024 00:00
Orbit: 770 x 788 km, 98.9° (Epoch: 03 December)

Date Brightness Start Highest point End Pass type
(mag) Time Alt. Az. Time Alt. Az. Time Alt. Az.
03 Dec 10.6 11:48:05 10° NNE 11:53:14 85° WNW 11:58:24 10° SSW visible
03 Dec 11.1 23:02:37 10° S 23:07:41 69° WSW 23:12:47 10° NNW visible
04 Dec 11.8 11:15:34 10° NNE 11:20:30 45° E 11:25:25 10° S visible
05 Dec 13.7 00:11:44 10° SW 00:14:34 15° W 00:17:26 10° WNW visible
05 Dec 13.1 10:43:40 10° NE 10:47:37 22° E 10:51:32 10° SE visible
05 Dec 11.0 12:22:08 10° N 12:26:56 40° WNW 12:31:43 10° SW visible
05 Dec 12.7 23:37:05 10° SSW 23:41:36 31° W 23:46:07 10° NW visible
06 Dec 10.6 11:49:10 10° NNE 11:54:20 84° WNW 11:59:30 10° SSW visible
06 Dec 11.1 23:03:42 10° S 23:08:46 68° WSW 23:13:52 10° NNW visible
07 Dec 11.7 11:16:38 10° NNE 11:21:35 46° E 11:26:31 10° S visible
08 Dec 13.7 00:12:52 10° SW 00:15:39 15° W 00:18:28 10° WNW visible
08 Dec 13.1 10:44:44 10° NE 10:48:42 22° E 10:52:39 10° SE visible
08 Dec 11.1 12:23:14 10° N 12:28:01 40° WNW 12:32:47 10° SW visible
08 Dec 12.7 23:38:11 10° SSW 23:42:40 31° W 23:47:11 10° NW visible
09 Dec 10.6 11:50:14 10° NNE 11:55:25 83° WNW 12:00:35 10° SSW visible
09 Dec 11.1 23:04:47 10° S 23:09:51 67° WSW 23:14:56 10° NNW visible
10 Dec 11.7 11:17:42 10° NNE 11:22:40 47° E 11:27:37 10° S visible
11 Dec 13.7 00:13:59 10° SW 00:16:44 15° W 00:19:29 10° WNW visible
11 Dec 13.0 10:45:46 10° NE 10:49:46 22° E 10:53:46 10° SE visible
11 Dec 11.1 12:24:17 10° N 12:29:04 39° WNW 12:33:51 10° SW visible
11 Dec 12.7 23:39:16 10° SSW 23:43:44 31° W 23:48:14 10° NW visible
12 Dec 10.6 11:51:18 10° NNE 11:56:28 82° WNW 12:01:38 10° SSW visible
12 Dec 11.2 23:05:51 10° S 23:10:54 66° WSW 23:16:00 10° NNW visible
